Terminal Aerodrome Forecast
Issued by NWS

Home | Current Version | Previous Version | Text Only | Print | Product List | Glossary Off
Versions: 1 2 3 4 5 6 7 8 9 10 11 12 13 14 15

000
FTUS43 KMPX 241720
TAFRNH
TAF
KRNH 241720Z 2418/2518 12012G18KT 6SM -SHRA SCT025 OVC050
     FM250300 10012KT 5SM -DZ OVC015
     FM250600 10012G19KT P6SM -DZ OVC010
     FM251500 09009G16KT P6SM BKN020 OVC050=

USA.gov is the U.S. government's official web portal to all federal, state and local government web resources and services.